{"data":{"norad_id":51810,"epoch":"2026-05-24T23:28:35.585760Z","epoch_age_seconds":77688,"freshness":"FRESH","line1":"1 51810U 22017AU  26144.97818965  .00000191  00000+0  30071-4 0  9992","line2":"2 51810  53.2134 346.8690 0001056  67.7899 292.3205 15.08842303235590","mean_motion":15.08842303,"eccentricity":0.0001056,"inclination_deg":53.2134,"raan_deg":346.869,"arg_perigee_deg":67.7899,"mean_anomaly_deg":292.3205,"bstar":3.0071e-5,"rev_number":23559,"period_min":95.437409008011,"perigee_km":539.00582219767,"apogee_km":540.46687704911,"semimajor_km":6917.8733496234,"source":"CELESTRAK","updated_at":"2026-05-25T13:38:16.957900Z"}}